Gene Autry, OK

4:47 PM CST on February 24, 2017 (GMT -0600)
Ardmore Municipal

Weather History for KADM - September, 2013

Change the Weather History Date:

Friday, September 27, 2013

  Actual Average Record
Temperature  
Mean Temperature 76 °F -  
Max Temperature 91 °F 80 °F 93 °F (1998)
Min Temperature 63 °F 58 °F 42 °F (2000)
Cooling Degree Days 11    
Growing Degree Days 26 (Base 50)    
Moisture  
Dew Point 62 °F    
Average Humidity 76    
Maximum Humidity 90    
Minimum Humidity 46    
Precipitation  
Precipitation 0.00 in - - ()
Sea Level Pressure  
Sea Level Pressure 29.89 in    
Wind  
Wind Speed 5 mph (SE)    
Max Wind Speed 14 mph    
Max Gust Speed 21 mph    
Visibility 10 miles    
Events      
Averages and records for this station are not official NWS values.
T = Trace of Precipitation, MM = Missing Value Source: NWS Daily Summary

Daily Weather History Graph

Daily Weather History Graph

Search for Another Location

Airport or City:

Trip Planner

Search our weather history database for the weather conditions in past years. The results will help you decide how hot, cold, wet, or windy it might be!

Date:

Astronomy

Sep. 27, 2013 Rise Set
Actual Time 7:19 AM CDT 7:17 PM CDT
Civil Twilight 6:54 AM CDT 7:42 PM CDT
Nautical Twilight 6:25 AM CDT 8:11 PM CDT
Astronomical Twilight 5:56 AM CDT 8:40 PM CDT
Moon 12:30 AM CDT (9/27) 2:43 PM CDT (9/27)
Length of Visible Light 12h 47m
Length of Day
11h 57m
Last Quarter, 45% of the Moon is Illuminated
Sep 27
Last Quarter
Oct 4
New
Oct 11
First Quarter
Oct 18
Full
Oct 26
Last Quarter

Hourly Weather History & Observations

Time (CDT) Temp. Heat Index Dew Point Humidity Pressure Visibility Wind Dir Wind Speed Gust Speed Precip Events Conditions
12:15 AM 69.1 °F - 59.7 °F 72% 29.88 in 10.0 mi East 3.5 mph - N/A   Clear
12:35 AM 68.4 °F - 59.9 °F 74% 29.89 in 10.0 mi East 4.6 mph - N/A   Clear
12:55 AM 67.6 °F - 59.7 °F 76% 29.89 in 10.0 mi ESE 4.6 mph - N/A   Clear
1:15 AM 68.2 °F - 59.4 °F 73% 29.89 in 10.0 mi East 3.5 mph - N/A   Clear
1:55 AM 65.8 °F - 59.4 °F 80% 29.90 in 10.0 mi ESE 4.6 mph - N/A   Clear
2:15 AM 67.1 °F - 60.4 °F 79% 29.90 in 10.0 mi ESE 3.5 mph - N/A   Clear
2:35 AM 66.6 °F - 60.4 °F 81% 29.91 in 10.0 mi SE 4.6 mph - N/A   Clear
2:55 AM 67.3 °F - 60.8 °F 80% 29.90 in 10.0 mi ESE 3.5 mph - N/A   Clear
3:15 AM 67.6 °F - 60.8 °F 79% 29.90 in 10.0 mi ESE 4.6 mph - N/A   Clear
3:35 AM 67.6 °F - 60.8 °F 79% 29.90 in 10.0 mi ESE 4.6 mph - N/A   Clear
3:55 AM 67.1 °F - 60.6 °F 80% 29.90 in 10.0 mi SE 4.6 mph - N/A   Clear
4:15 AM 65.7 °F - 60.6 °F 84% 29.90 in 10.0 mi Calm Calm - N/A   Clear
4:35 AM 64.6 °F - 60.1 °F 85% 29.90 in 10.0 mi Calm Calm - N/A   Clear
4:55 AM 63.7 °F - 60.1 °F 88% 29.90 in 10.0 mi ESE 4.6 mph - N/A   Clear
5:15 AM 63.5 °F - 60.1 °F 89% 29.90 in 10.0 mi ESE 4.6 mph - N/A   Clear
5:35 AM 64.8 °F - 60.8 °F 87% 29.91 in 10.0 mi ESE 3.5 mph - N/A   Clear
5:55 AM 64.4 °F - 60.4 °F 87% 29.91 in 10.0 mi ESE 3.5 mph - N/A   Clear
6:15 AM 63.5 °F - 60.3 °F 89% 29.92 in 10.0 mi SE 3.5 mph - N/A   Clear
6:35 AM 63.5 °F - 60.4 °F 90% 29.92 in 10.0 mi SE 3.5 mph - N/A   Clear
9:55 AM 77.0 °F - 64.4 °F 65% 29.94 in 10.0 mi SE 5.8 mph - N/A   Clear
4:55 PM 89.6 °F 92.2 °F 66.2 °F 46% 29.84 in 10.0 mi South 12.7 mph 20.7 mph N/A   Scattered Clouds
6:55 PM 86.0 °F 89.4 °F 68.0 °F 55% 29.83 in 10.0 mi SSE 12.7 mph 19.6 mph N/A   Scattered Clouds
7:55 PM 82.4 °F 86.3 °F 69.8 °F 66% 29.83 in 10.0 mi SE 8.1 mph - N/A   Clear
8:55 PM 80.6 °F 83.9 °F 69.8 °F 70% 29.85 in 10.0 mi SE 8.1 mph - N/A   Scattered Clouds
9:55 PM 80.6 °F 83.9 °F 69.8 °F 70% 29.87 in 10.0 mi SE 9.2 mph - N/A   Mostly Cloudy
11:35 PM 80.6 °F 82.9 °F 67.1 °F 63% 29.87 in 10.0 mi SSE 13.8 mph 20.7 mph N/A   Clear
11:55 PM 80.6 °F 82.9 °F 67.1 °F 63% 29.88 in 10.0 mi SSE 11.5 mph 17.3 mph N/A   Scattered Clouds